| time (UTC) | temp C | wind direction | speed KPH | gust KPH | rain 1hr cm | rain 24hr cm | rain mn cm | humidity % | barometer mb |
| 20260903181550 | 25 | 196 | 3.2 | 11.3 | 0.00 | 0.00 | 0.00 | 62 | 1014.4 |
| 20260903180054 | 25 | 167 | 6.4 | 12.9 | 0.00 | 0.00 | 0.00 | 61 | 1014.4 |
| 20260903174547 | 25 | 137 | 4.8 | 14.5 | 0.00 | 0.00 | 0.00 | 63 | 1014.4 |
| 20260903173055 | 24 | 202 | 6.4 | 11.3 | 0.00 | 0.00 | 0.00 | 65 | 1014.6 |
| 20260903171601 | 24 | 160 | 4.8 | 12.9 | 0.00 | 0.00 | 0.00 | 65 | 1014.6 |
| 20260903170046 | 23 | 104 | 3.2 | 11.3 | 0.00 | 0.00 | 0.00 | 66 | 1014.7 |
| 20260903164602 | 23 | 186 | 4.8 | 9.7 | 0.00 | 0.00 | 0.00 | 68 | 1014.6 |
| 20260903163101 | 22 | 0 | 3.2 | 9.7 | 0.00 | 0.00 | 0.00 | 71 | 1014.5 |
| 20260903161549 | 21 | 199 | 0.0 | 6.4 | 0.00 | 0.00 | 0.00 | 75 | 1014.6 |
| 20260903160051 | 21 | 0 | 1.6 | 6.4 | 0.00 | 0.00 | 0.00 | 77 | 1014.6 |
| 20260903154550 | 20 | 117 | 0.0 | 4.8 | 0.00 | 0.00 | 0.00 | 79 | 1014.7 |
| 20260903153054 | 20 | 0 | 0.0 | 3.2 | 0.00 | 0.00 | 0.00 | 80 | 1014.6 |
| 20260903151549 | 18 | 139 | 1.6 | 4.8 | 0.00 | 0.00 | 0.00 | 82 | 1014.6 |
| 20260903150047 | 18 | 0 | 0.0 | 4.8 | 0.00 | 0.00 | 0.00 | 83 | 1014.7 |
| 20260903144552 | 17 | 131 | 0.0 | 3.2 | 0.00 | 0.00 | 0.00 | 85 | 1014.6 |
| 20260903143049 | 17 | 0 | 0.0 | 3.2 | 0.00 | 0.00 | 0.00 | 85 | 1014.4 |
| 20260903141555 | 17 | 0 | 0.0 | 0.0 | 0.00 | 0.00 | 0.00 | 85 | 1014.0 |
| 20260903140051 | 16 | 0 | 0.0 | 1.6 | 0.00 | 0.00 | 0.00 | 85 | 1013.9 |
| 20260903134545 | 16 | 0 | 0.0 | 0.0 | 0.00 | 0.00 | 0.00 | 85 | 1013.8 |
| 20260903133055 | 16 | 0 | 0.0 | 1.6 | 0.00 | 0.00 | 0.00 | 85 | 1013.9 |
| 20260903131553 | 16 | 0 | 0.0 | 1.6 | 0.00 | 0.00 | 0.00 | 85 | 1013.8 |
| 20260903130051 | 16 | 0 | 0.0 | 3.2 | 0.00 | 0.00 | 0.00 | 85 | 1013.8 |
| 20260903124553 | 17 | 0 | 0.0 | 1.6 | 0.00 | 0.00 | 0.00 | 85 | 1013.8 |
| 20260903123045 | 17 | 0 | 0.0 | 0.0 | 0.00 | 0.00 | 0.00 | 84 | 1013.7 |
| 20260903121549 | 17 | 0 | 0.0 | 0.0 | 0.00 | 0.00 | 0.00 | 85 | 1013.7 |
| 20260903120057 | 17 | 0 | 0.0 | 0.0 | 0.00 | 0.00 | 0.00 | 84 | 1013.7 |
| 20260903114547 | 17 | 0 | 0.0 | 1.6 | 0.00 | 0.00 | 0.00 | 84 | 1013.8 |
| 20260903113131 | 17 | 0 | 0.0 | 1.6 | 0.00 | 0.00 | 0.00 | 84 | 1013.9 |
| 20260903111549 | 17 | 0 | 0.0 | 3.2 | 0.00 | 0.00 | 0.00 | 84 | 1014.0 |
| 20260903110051 | 17 | 0 | 0.0 | 3.2 | 0.00 | 0.00 | 0.00 | 84 | 1013.9 |
| 20260903104608 | 17 | 0 | 0.0 | 1.6 | 0.00 | 0.00 | 0.00 | 83 | 1014.0 |
| 20260903103052 | 17 | 0 | 0.0 | 0.0 | 0.00 | 0.00 | 0.00 | 83 | 1014.1 |
| 20260903101556 | 17 | 0 | 0.0 | 0.0 | 0.00 | 0.00 | 0.00 | 83 | 1014.2 |
| 20260903100047 | 17 | 0 | 0.0 | 0.0 | 0.00 | 0.00 | 0.00 | 82 | 1014.2 |
| 20260903094552 | 17 | 0 | 0.0 | 0.0 | 0.00 | 0.00 | 0.00 | 82 | 1014.3 |
| 20260903093051 | 17 | 0 | 0.0 | 0.0 | 0.00 | 0.00 | 0.00 | 82 | 1014.3 |
| 20260903091551 | 17 | 0 | 0.0 | 0.0 | 0.00 | 0.00 | 0.00 | 81 | 1014.5 |
| 20260903090050 | 17 | 0 | 0.0 | 0.0 | 0.00 | 0.00 | 0.00 | 80 | 1014.7 |
| 20260903084548 | 18 | 0 | 0.0 | 0.0 | 0.00 | 0.00 | 0.00 | 80 | 1014.8 |
| 20260903083057 | 18 | 0 | 0.0 | 0.0 | 0.00 | 0.00 | 0.00 | 80 | 1014.9 |
| 20260903081549 | 18 | 0 | 0.0 | 0.0 | 0.00 | 0.00 | 0.00 | 79 | 1014.9 |
| 20260903080049 | 18 | 0 | 0.0 | 0.0 | 0.00 | 0.00 | 0.00 | 79 | 1015.1 |
| 20260903074545 | 18 | 0 | 0.0 | 0.0 | 0.00 | 0.00 | 0.00 | 78 | 1015.2 |
| 20260903073046 | 18 | 0 | 0.0 | 0.0 | 0.00 | 0.00 | 0.00 | 77 | 1015.0 |
| 20260903071559 | 18 | 0 | 0.0 | 0.0 | 0.00 | 0.00 | 0.00 | 76 | 1014.9 |
| 20260903070047 | 19 | 0 | 0.0 | 0.0 | 0.00 | 0.00 | 0.00 | 75 | 1015.0 |
| 20260903064600 | 19 | 0 | 0.0 | 1.6 | 0.00 | 0.00 | 0.00 | 74 | 1015.0 |
| 20260903063053 | 20 | 0 | 0.0 | 0.0 | 0.00 | 0.00 | 0.00 | 73 | 1014.9 |
| 20260903061550 | 20 | 0 | 0.0 | 1.6 | 0.00 | 0.00 | 0.00 | 73 | 1014.7 |
| 20260903060104 | 20 | 131 | 0.0 | 3.2 | 0.00 | 0.00 | 0.00 | 72 | 1014.7 |
| 20260903054556 | 20 | 203 | 1.6 | 8.0 | 0.00 | 0.00 | 0.00 | 72 | 1014.6 |
| 20260903053053 | 20 | 177 | 3.2 | 6.4 | 0.00 | 0.00 | 0.00 | 71 | 1014.7 |
| 20260903051607 | 20 | 0 | 0.0 | 4.8 | 0.00 | 0.00 | 0.00 | 70 | 1014.9 |
| 20260903050055 | 20 | 0 | 0.0 | 3.2 | 0.00 | 0.00 | 0.00 | 70 | 1014.7 |
| 20260903044545 | 20 | 0 | 0.0 | 4.8 | 0.00 | 0.00 | 0.00 | 70 | 1014.7 |
| 20260903043145 | 20 | 0 | 0.0 | 3.2 | 0.00 | 0.00 | 0.00 | 69 | 1014.7 |
| 20260903041549 | 20 | 0 | 0.0 | 3.2 | 0.00 | 0.00 | 0.00 | 69 | 1014.6 |
| 20260903040047 | 21 | 0 | 0.0 | 1.6 | 0.00 | 0.00 | 0.00 | 69 | 1014.6 |
| 20260903034554 | 21 | 294 | 0.0 | 6.4 | 0.00 | 0.00 | 0.00 | 68 | 1014.3 |
| 20260903033051 | 21 | 323 | 0.0 | 6.4 | 0.00 | 0.00 | 0.00 | 68 | 1014.2 |
| 20260903031546 | 21 | 314 | 1.6 | 6.4 | 0.00 | 0.00 | 0.00 | 68 | 1014.1 |
| 20260903030046 | 21 | 0 | 0.0 | 6.4 | 0.00 | 0.00 | 0.00 | 67 | 1014.2 |
| 20260903024551 | 21 | 0 | 1.6 | 6.4 | 0.00 | 0.00 | 0.00 | 67 | 1014.1 |
| 20260903023049 | 22 | 0 | 0.0 | 4.8 | 0.00 | 0.00 | 0.00 | 66 | 1014.1 |
| 20260903021546 | 22 | 344 | 1.6 | 6.4 | 0.00 | 0.00 | 0.00 | 65 | 1014.1 |
| 20260903020045 | 22 | 288 | 0.0 | 6.4 | 0.00 | 0.00 | 0.00 | 64 | 1014.0 |
| 20260903014553 | 23 | 291 | 1.6 | 6.4 | 0.00 | 0.00 | 0.00 | 64 | 1013.9 |
| 20260903013107 | 23 | 307 | 1.6 | 8.0 | 0.00 | 0.00 | 0.00 | 64 | 1013.9 |
| 20260903011558 | 24 | 298 | 3.2 | 8.0 | 0.00 | 0.00 | 0.00 | 64 | 1013.9 |
| 20260903010056 | 24 | 311 | 3.2 | 9.7 | 0.00 | 0.00 | 0.00 | 62 | 1013.9 |
| 20260903004551 | 25 | 295 | 3.2 | 12.9 | 0.00 | 0.00 | 0.00 | 59 | 1013.9 |
| 20260903003050 | 26 | 290 | 3.2 | 12.9 | 0.00 | 0.00 | 0.00 | 55 | 1013.8 |
| 20260903001546 | 27 | 286 | 4.8 | 12.9 | 0.00 | 0.00 | 0.00 | 53 | 1013.8 |
| 20260903000056 | 27 | 314 | 3.2 | 12.9 | 0.00 | 0.00 | 0.00 | 48 | 1013.9 |
| 20260902234614 | 28 | 333 | 3.2 | 12.9 | 0.00 | 0.00 | 0.00 | 47 | 1013.8 |
| 20260902233048 | 28 | 260 | 3.2 | 11.3 | 0.00 | 0.00 | 0.00 | 45 | 1014.0 |
| 20260902231553 | 28 | 321 | 1.6 | 14.5 | 0.00 | 0.00 | 0.00 | 47 | 1014.0 |
| 20260902230050 | 28 | 227 | 3.2 | 9.7 | 0.00 | 0.00 | 0.00 | 50 | 1014.0 |
| 20260902224605 | 27 | 231 | 3.2 | 11.3 | 0.00 | 0.00 | 0.00 | 51 | 1014.1 |
| 20260902223051 | 27 | 160 | 4.8 | 14.5 | 0.00 | 0.00 | 0.00 | 51 | 1014.3 |
| 20260902221549 | 27 | 156 | 4.8 | 19.3 | 0.00 | 0.00 | 0.00 | 52 | 1014.5 |
| 20260902220050 | 27 | 223 | 4.8 | 14.5 | 0.00 | 0.00 | 0.00 | 50 | 1014.7 |
| 20260902214601 | 27 | 205 | 4.8 | 16.1 | 0.00 | 0.00 | 0.00 | 50 | 1014.9 |
| 20260902213050 | 26 | 194 | 9.7 | 17.7 | 0.00 | 0.00 | 0.00 | 53 | 1015.1 |
| 20260902211547 | 26 | 203 | 8.0 | 17.7 | 0.00 | 0.00 | 0.00 | 53 | 1015.1 |
| 20260902210057 | 27 | 221 | 8.0 | 19.3 | 0.00 | 0.00 | 0.00 | 54 | 1015.3 |
| 20260902204555 | 27 | 157 | 4.8 | 14.5 | 0.00 | 0.00 | 0.00 | 53 | 1015.4 |
| 20260902203049 | 26 | 213 | 4.8 | 12.9 | 0.00 | 0.00 | 0.00 | 54 | 1015.4 |
| 20260902201603 | 26 | 157 | 6.4 | 16.1 | 0.00 | 0.00 | 0.00 | 52 | 1015.5 |
| 20260902200057 | 26 | 221 | 6.4 | 14.5 | 0.00 | 0.00 | 0.00 | 55 | 1015.6 |
| 20260902194544 | 26 | 0 | 3.2 | 17.7 | 0.00 | 0.00 | 0.00 | 53 | 1015.7 |
| 20260902193051 | 26 | 175 | 1.6 | 9.7 | 0.00 | 0.00 | 0.00 | 53 | 1015.7 |
| 20260902191550 | 26 | 208 | 1.6 | 12.9 | 0.00 | 0.00 | 0.00 | 56 | 1016.0 |
| 20260902190058 | 25 | 244 | 4.8 | 11.3 | 0.00 | 0.00 | 0.00 | 58 | 1016.2 |
| 20260902184546 | 25 | 186 | 3.2 | 12.9 | 0.00 | 0.00 | 0.00 | 60 | 1016.4 |
| 20260902183048 | 25 | 209 | 3.2 | 11.3 | 0.00 | 0.00 | 0.00 | 61 | 1016.4 |